Weather in Maydakovo

Russia / Ivanovo Oblast     56°53′52″N   41°49′08″E
temp.,
°C
wind,
m/s
gust,
m/s
humid.,
%
clouds,
%
prec.,
mm/h
press.,
hPa
HPBL,
m
3 march, wed
wed300:00−5nw5138927 0.0 1006536
03:00−7nw6139142 0.0 1008536
06:00−8nw61393100 0.1 1009513
09:00−7nw61192100 0.1 1011498
12:00−4nw51086100 0.0 1010682
15:00−2w698984 0.1 1009824
18:00−2w51294100 0.3 1006661
21:00−2w51197100 0.5 1005565
4 march, thu
thu400:00−3wsw51295100 0.3 1002678
03:00−2wsw61396100 0.7 1000739
06:00−2wsw51292100 0.2 996504
09:00−1wnw71187100 1.0 9951076
12:00−3wnw7118467 0.1 996939
15:00−2wnw588783 0.2 998884
18:00−4wnw41092100 0.1 999380
21:00−6nnw3796100 0.1 1000207
5 march, fri
fri500:00−10n339465 0.0 100176
03:00−12n239560 0.0 100354
06:00−14nnw23940 0.0 100549
09:00−11nnw24890 0.0 1006147
12:00−7wnw22780 0.0 1007419
15:00−5wsw237727 0.0 1008667
18:00−8ssw228995 0.0 100824
21:00−10sw239376 0.0 101025
6 march, sat
sat600:00−10w239799 0.1 101069
03:00−13nw369686 0.1 1011129
06:00−15nw499563 0.0 1012224
09:00−15nw489371 0.0 1013305
12:00−12nw468475 0.0 1014678
15:00−10nw478186 0.0 1013892
18:00−12wnw229699 0.1 101330
21:00−13wsw239696 0.1 101253
7 march, sun
sun700:00−13ssw359876 0.0 1010113
03:00−13ssw5109576 0.0 1007257
06:00−10ssw61492100 0.1 1002657
09:00−8ssw81492100 0.6 997929
12:00−4ssw81592100 1.0 9931096
15:00−3ssw81392100 2.9 9901068
18:00−7w41191100 1.8 990561
21:00−9wsw4108899 1.9 991280